W5SYF Weather Reports


Display with metric or nautical units.
time (UTC)temp
F
wind
direction
speed
MPH
gust
MPH
rain 1hr
in
rain 24hr
in
rain mn
in
humidity
%
barometer
mb
20220119191711 57 194 1.0 7.0 0.00 0.00 0.00 62 1012.7
20220119191210 56 307 2.0 9.0 0.00 0.00 0.00 63 1012.7
20220119190710 56 339 2.0 6.0 0.00 0.00 0.00 62 1012.6
20220119190209 55 343 2.0 8.0 0.00 0.00 0.00 61 1012.6
20220119185707 56 345 2.0 8.0 0.00 0.00 0.00 60 1012.7
20220119185206 56 355 1.0 7.0 0.00 0.00 0.00 59 1012.4
20220119184705 57 318 6.0 7.0 0.00 0.00 0.00 58 1012.2
20220119184203 57 270 1.0 5.0 0.00 0.00 0.00 57 1012.2
20220119183702 57 304 2.0 5.0 0.00 0.00 0.00 56 1012.4
20220119183200 58 63 3.0 8.0 0.00 0.00 0.00 55 1012.5
20220119182659 58 342 2.0 4.0 0.00 0.00 0.00 53 1012.6
20220119182159 58 307 3.0 5.0 0.00 0.00 0.00 52 1012.5
20220119181657 58 331 2.0 8.0 0.00 0.00 0.00 49 1012.5
20220119181157 59 292 0.0 6.0 0.00 0.00 0.00 48 1012.3
20220119180655 59 20 1.0 9.0 0.00 0.00 0.00 47 1012.1
20220119180155 59 334 4.0 5.0 0.00 0.00 0.00 44 1012.3
20220119175653 59 357 3.0 6.0 0.00 0.00 0.00 43 1012.6
20220119175152 59 312 7.0 8.0 0.00 0.00 0.00 42 1012.4
20220119174651 60 351 3.0 9.0 0.00 0.00 0.00 43 1012.8
20220119174150 60 12 3.0 6.0 0.00 0.00 0.00 42 1012.6
20220119173648 61 57 0.0 4.0 0.00 0.00 0.00 42 1012.6
20220119173147 62 285 1.0 7.0 0.00 0.00 0.00 40 1012.3
20220119172647 62 331 4.0 7.0 0.00 0.00 0.00 36 1012.1
20220119172147 61 278 5.0 7.0 0.00 0.00 0.00 38 1012.1
20220119171645 61 307 2.0 5.0 0.00 0.00 0.00 41 1012.1
20220119171143 61 301 3.0 6.0 0.00 0.00 0.00 47 1011.2
20220119170642 61 329 3.0 6.0 0.00 0.00 0.00 48 1011.8
20220119170142 61 300 0.0 7.0 0.00 0.00 0.00 52 1011.7
20220119165641 61 312 4.0 4.0 0.00 0.00 0.00 54 1011.4
20220119165139 60 338 2.0 3.0 0.00 0.00 0.00 54 1011.6
20220119164638 60 14 0.0 3.0 0.00 0.00 0.00 58 1011.7
20220119164137 60 29 2.0 5.0 0.00 0.00 0.00 64 1011.8
20220119163636 60 75 0.0 7.0 0.00 0.00 0.00 66 1012.0
20220119163137 59 19 0.0 2.0 0.00 0.00 0.00 70 1012.0
20220119162635 59 0 1.0 3.0 0.00 0.00 0.00 72 1011.7
20220119162136 59 355 2.0 2.0 0.00 0.00 0.00 74 1011.7
20220119161635 59 194 0.0 1.0 0.00 0.00 0.00 73 1011.6
20220119161133 59 84 2.0 2.0 0.00 0.00 0.00 70 1011.5
20220119160632 59 319 2.0 2.0 0.00 0.00 0.00 69 1011.4
20220119160132 59 99 0.0 2.0 0.00 0.00 0.00 69 1011.1
20220119155630 59 154 0.0 2.0 0.00 0.00 0.00 72 1011.7
20220119155128 59 157 0.0 2.0 0.00 0.00 0.00 71 1011.1
20220119154628 59 0 0.0 1.0 0.00 0.00 0.00 69 1010.9
20220119154127 59 18 0.0 0.0 0.00 0.00 0.00 71 1010.8
20220119153628 60 348 1.0 4.0 0.00 0.00 0.00 71 1010.6
20220119153126 60 110 0.0 2.0 0.00 0.00 0.00 72 1010.1
20220119152625 59 157 0.0 1.0 0.00 0.00 0.00 70 1010.4
20220119152125 60 63 1.0 2.0 0.00 0.00 0.00 67 1010.6
20220119151623 60 0 0.0 3.0 0.00 0.00 0.00 67 1010.5
20220119151121 60 90 0.0 3.0 0.00 0.00 0.00 69 1010.4
20220119150620 60 120 1.0 4.0 0.00 0.00 0.00 68 1010.6
20220119150119 59 261 0.0 2.0 0.00 0.00 0.00 73 1010.6
20220119145618 57 77 2.0 2.0 0.00 0.00 0.00 80 1010.4
20220119145117 57 306 0.0 2.0 0.00 0.00 0.00 81 1010.2
20220119144616 57 84 1.0 1.0 0.00 0.00 0.00 80 1010.3
20220119144115 57 66 0.0 1.0 0.00 0.00 0.00 79 1010.2
20220119143614 57 117 0.0 0.0 0.00 0.00 0.00 79 1010.2
20220119143113 57 154 0.0 4.0 0.00 0.00 0.00 79 1010.2
20220119142611 57 188 0.0 3.0 0.00 0.00 0.00 79 1010.0
20220119142109 57 172 0.0 2.0 0.00 0.00 0.00 79 1009.7
20220119141608 56 194 1.0 2.0 0.00 0.00 0.00 80 1009.9
20220119141107 56 206 0.0 2.0 0.00 0.00 0.00 81 1009.7
20220119140607 56 0 0.0 0.0 0.00 0.00 0.00 81 1009.7
20220119140105 56 0 0.0 0.0 0.00 0.00 0.00 82 1009.7
20220119135603 55 0 0.0 1.0 0.00 0.00 0.00 83 1009.4
20220119135102 55 12 1.0 1.0 0.00 0.00 0.00 83 1009.3
20220119134602 54 23 0.0 1.0 0.00 0.00 0.00 83 1009.4
20220119134100 55 23 0.0 1.0 0.00 0.00 0.00 82 1009.2
20220119133559 55 346 0.0 2.0 0.00 0.00 0.00 81 1009.2
20220119133057 55 354 0.0 1.0 0.00 0.00 0.00 80 1009.0
20220119132556 56 117 0.0 2.0 0.00 0.00 0.00 79 1008.9
20220119132055 57 119 2.0 3.0 0.00 0.00 0.00 79 1009.1
20220119131554 57 130 2.0 2.0 0.00 0.00 0.00 78 1009.0
20220119131053 57 165 1.0 2.0 0.00 0.00 0.00 78 1008.9
20220119130552 57 212 0.0 3.0 0.00 0.00 0.00 77 1009.0
20220119130051 58 151 0.0 4.0 0.00 0.00 0.00 77 1008.9
20220119125549 58 188 0.0 3.0 0.00 0.00 0.00 77 1008.8
20220119125048 58 149 0.0 4.0 0.00 0.00 0.00 77 1008.9
20220119124546 58 97 0.0 4.0 0.00 0.00 0.00 77 1008.8
20220119124045 58 227 3.0 4.0 0.00 0.00 0.00 78 1008.6
20220119123544 58 195 2.0 5.0 0.00 0.00 0.00 78 1008.7
20220119123043 58 152 2.0 5.0 0.00 0.00 0.00 78 1008.7
20220119122542 58 195 3.0 5.0 0.00 0.00 0.00 78 1008.6
20220119122040 58 160 1.0 6.0 0.00 0.00 0.00 79 1008.3
20220119121540 58 231 4.0 4.0 0.00 0.00 0.00 79 1008.4
20220119121038 58 212 2.0 4.0 0.00 0.00 0.00 79 1008.3
20220119120537 58 188 3.0 5.0 0.00 0.00 0.00 79 1008.2
20220119120036 58 206 1.0 7.0 0.00 0.00 0.00 79 1008.1
20220119115535 58 221 2.0 7.0 0.00 0.00 0.00 79 1008.1
20220119115033 58 156 0.0 5.0 0.00 0.00 0.00 80 1008.1
20220119114532 58 211 3.0 7.0 0.00 0.00 0.00 80 1008.1
20220119114030 58 157 3.0 5.0 0.00 0.00 0.00 79 1008.1
20220119113529 58 183 3.0 5.0 0.00 0.00 0.00 80 1007.9
20220119113028 58 198 2.0 6.0 0.00 0.00 0.00 81 1007.9
20220119112527 58 192 2.0 4.0 0.00 0.00 0.00 81 1008.1
20220119112026 58 157 2.0 6.0 0.00 0.00 0.00 80 1008.0
20220119111526 58 214 3.0 7.0 0.00 0.00 0.00 80 1007.6
20220119111025 58 120 2.0 9.0 0.00 0.00 0.00 80 1007.8
20220119110524 58 193 3.0 4.0 0.00 0.00 0.00 81 1007.8
20220119110024 58 195 0.0 7.0 0.00 0.00 0.00 80 1007.8
20220119105523 58 214 3.0 5.0 0.00 0.00 0.00 80 1008.0
20220119105022 59 226 5.0 5.0 0.00 0.00 0.00 79 1007.7
20220119104522 59 196 4.0 6.0 0.00 0.00 0.00 79 1007.6
20220119104022 59 197 4.0 6.0 0.00 0.00 0.00 79 1007.6
20220119103522 59 190 3.0 7.0 0.00 0.00 0.00 79 1007.5
20220119103020 59 150 2.0 5.0 0.00 0.00 0.00 79 1007.4
20220119102520 59 198 4.0 8.0 0.00 0.00 0.00 79 1007.3
20220119102019 59 151 2.0 8.0 0.00 0.00 0.00 79 1007.4
20220119101518 59 246 1.0 4.0 0.00 0.00 0.00 78 1007.4
20220119101017 59 180 3.0 6.0 0.00 0.00 0.00 78 1007.7
20220119100517 59 186 1.0 5.0 0.00 0.00 0.00 78 1007.6
20220119100016 59 195 1.0 6.0 0.00 0.00 0.00 77 1007.3
20220119095516 59 176 0.0 5.0 0.00 0.00 0.00 77 1007.4
20220119095014 59 165 1.0 5.0 0.00 0.00 0.00 77 1007.2
20220119094514 59 195 0.0 4.0 0.00 0.00 0.00 77 1007.2
20220119094012 59 225 3.0 4.0 0.00 0.00 0.00 77 1007.1
20220119093511 60 183 3.0 5.0 0.00 0.00 0.00 76 1007.3
20220119093012 60 200 3.0 6.0 0.00 0.00 0.00 76 1007.6
20220119092510 60 292 2.0 5.0 0.00 0.00 0.00 76 1007.4
20220119092008 60 196 5.0 9.0 0.00 0.00 0.00 76 1007.3
20220119091507 60 210 2.0 7.0 0.00 0.00 0.00 75 1007.5
20220119091006 59 199 2.0 3.0 0.00 0.00 0.00 75 1007.1
20220119090506 59 189 5.0 9.0 0.00 0.00 0.00 75 1007.3
20220119090007 60 211 5.0 6.0 0.00 0.00 0.00 75 1007.4
20220119085505 60 166 3.0 7.0 0.00 0.00 0.00 74 1007.5
20220119085004 60 154 0.0 7.0 0.00 0.00 0.00 74 1007.3
20220119084503 60 220 3.0 10.0 0.00 0.00 0.00 73 1007.4
20220119084002 60 261 0.0 9.0 0.00 0.00 0.00 73 1007.6
20220119083500 60 195 5.0 9.0 0.00 0.00 0.00 73 1007.4
20220119082959 60 188 2.0 5.0 0.00 0.00 0.00 73 1007.4
20220119082459 60 197 2.0 8.0 0.00 0.00 0.00 73 1007.4
20220119081959 60 260 5.0 13.0 0.00 0.00 0.00 73 1007.6
20220119081457 61 214 5.0 6.0 0.00 0.00 0.00 73 1007.6
20220119080957 60 129 5.0 10.0 0.00 0.00 0.00 72 1007.7
20220119080456 61 197 6.0 7.0 0.00 0.00 0.00 72 1007.6
20220119075954 61 166 3.0 8.0 0.00 0.00 0.00 72 1007.5
20220119075453 61 201 9.0 10.0 0.00 0.00 0.00 71 1007.6
20220119074952 61 227 3.0 9.0 0.00 0.00 0.00 71 1007.3
20220119074450 61 222 5.0 12.0 0.00 0.00 0.00 70 1007.9
20220119073949 62 146 7.0 15.0 0.00 0.00 0.00 70 1007.7
20220119073447 62 203 4.0 12.0 0.00 0.00 0.00 70 1008.0
20220119072946 61 134 6.0 13.0 0.00 0.00 0.00 69 1007.8
20220119072446 62 178 4.0 15.0 0.00 0.00 0.00 69 1007.9
20220119071944 62 135 3.0 7.0 0.00 0.00 0.00 69 1007.7
20220119071443 62 204 6.0 13.0 0.00 0.00 0.00 68 1007.8
20220119070943 62 194 6.0 10.0 0.00 0.00 0.00 68 1007.7
20220119070441 62 204 8.0 14.0 0.00 0.00 0.00 68 1007.5
20220119065940 62 154 4.0 7.0 0.00 0.00 0.00 68 1007.8
20220119065441 62 215 6.0 16.0 0.00 0.00 0.00 67 1007.8
20220119064941 62 181 6.0 15.0 0.00 0.00 0.00 67 1008.1
20220119064439 62 124 3.0 10.0 0.00 0.00 0.00 66 1008.0
20220119063939 62 162 7.0 11.0 0.00 0.00 0.00 66 1007.9
20220119063438 62 202 8.0 15.0 0.00 0.00 0.00 66 1007.9
20220119062937 63 120 9.0 17.0 0.00 0.00 0.00 66 1007.8
20220119062437 62 158 5.0 20.0 0.00 0.00 0.00 65 1007.9
20220119061937 63 221 4.0 12.0 0.00 0.00 0.00 65 1007.9
20220119061436 63 159 6.0 9.0 0.00 0.00 0.00 65 1008.1
20220119060934 63 153 6.0 12.0 0.00 0.00 0.00 64 1008.2
20220119060433 63 189 3.0 12.0 0.00 0.00 0.00 64 1008.1
20220119055932 63 186 5.0 9.0 0.00 0.00 0.00 63 1008.2
20220119055431 63 193 5.0 13.0 0.00 0.00 0.00 63 1008.1
20220119054929 63 163 5.0 6.0 0.00 0.00 0.00 62 1008.2
20220119054429 64 153 9.0 10.0 0.00 0.00 0.00 62 1008.0
20220119053928 63 226 4.0 11.0 0.00 0.00 0.00 61 1007.9
20220119053426 64 194 4.0 11.0 0.00 0.00 0.00 60 1007.7
20220119052925 64 177 3.0 9.0 0.00 0.00 0.00 59 1007.9
20220119052424 64 218 5.0 10.0 0.00 0.00 0.00 59 1008.1
20220119051924 64 186 4.0 8.0 0.00 0.00 0.00 58 1007.8
20220119051422 65 215 6.0 9.0 0.00 0.00 0.00 57 1007.7
20220119050921 65 180 5.0 11.0 0.00 0.00 0.00 57 1007.8
20220119050422 65 177 5.0 12.0 0.00 0.00 0.00 56 1007.8
20220119045921 65 157 3.0 9.0 0.00 0.00 0.00 56 1007.9
20220119045420 65 197 3.0 14.0 0.00 0.00 0.00 56 1007.8
20220119044919 66 139 4.0 14.0 0.00 0.00 0.00 55 1007.7
20220119044418 66 192 8.0 13.0 0.00 0.00 0.00 55 1008.0
20220119043917 66 175 5.0 11.0 0.00 0.00 0.00 55 1007.8
20220119043416 66 216 6.0 18.0 0.00 0.00 0.00 54 1007.9
20220119042914 66 199 4.0 14.0 0.00 0.00 0.00 55 1007.6
20220119042413 66 199 5.0 10.0 0.00 0.00 0.00 55 1007.6
20220119041912 66 173 4.0 9.0 0.00 0.00 0.00 54 1007.7
20220119041411 66 172 3.0 12.0 0.00 0.00 0.00 54 1007.4
20220119040910 66 123 2.0 13.0 0.00 0.00 0.00 54 1007.7
20220119040409 65 222 10.0 12.0 0.00 0.00 0.00 55 1007.4
20220119035907 66 209 5.0 16.0 0.00 0.00 0.00 55 1007.6
20220119035408 65 102 5.0 10.0 0.00 0.00 0.00 56 1007.3
20220119034907 65 201 5.0 10.0 0.00 0.00 0.00 56 1007.3
20220119034406 65 196 3.0 11.0 0.00 0.00 0.00 57 1007.4
20220119033904 65 184 6.0 11.0 0.00 0.00 0.00 57 1007.4
20220119033403 64 135 7.0 9.0 0.00 0.00 0.00 57 1007.2
20220119032902 64 194 3.0 10.0 0.00 0.00 0.00 57 1007.3
20220119032401 64 175 0.0 10.0 0.00 0.00 0.00 57 1007.1
20220119031900 64 160 0.0 11.0 0.00 0.00 0.00 57 1007.4
20220119031359 65 153 7.0 13.0 0.00 0.00 0.00 57 1007.5
20220119030858 65 167 3.0 9.0 0.00 0.00 0.00 57 1007.2
20220119030357 65 139 6.0 12.0 0.00 0.00 0.00 57 1007.3
20220119025856 65 127 3.0 9.0 0.00 0.00 0.00 57 1007.3
20220119025354 65 175 5.0 10.0 0.00 0.00 0.00 57 1007.2
20220119024854 65 143 8.0 12.0 0.00 0.00 0.00 57 1007.3
20220119024354 65 138 9.0 17.0 0.00 0.00 0.00 56 1007.2
20220119023853 65 202 3.0 11.0 0.00 0.00 0.00 56 1007.0
20220119023352 65 142 8.0 10.0 0.00 0.00 0.00 56 1007.1
20220119022851 66 227 3.0 13.0 0.00 0.00 0.00 55 1007.2
20220119022350 66 177 6.0 13.0 0.00 0.00 0.00 55 1006.9
20220119021850 66 154 6.0 9.0 0.00 0.00 0.00 55 1007.2
20220119021349 66 148 5.0 10.0 0.00 0.00 0.00 54 1006.8
20220119020848 66 170 5.0 9.0 0.00 0.00 0.00 54 1007.0
20220119020348 66 186 4.0 13.0 0.00 0.00 0.00 54 1007.1
20220119015847 67 163 5.0 18.0 0.00 0.00 0.00 53 1007.1
20220119015347 67 145 6.0 17.0 0.00 0.00 0.00 53 1006.8
20220119014845 67 143 7.0 19.0 0.00 0.00 0.00 53 1006.9
20220119014346 67 173 3.0 17.0 0.00 0.00 0.00 53 1006.9
20220119013845 67 144 4.0 15.0 0.00 0.00 0.00 52 1006.9
20220119013344 67 147 10.0 16.0 0.00 0.00 0.00 52 1006.8
20220119012843 67 148 6.0 21.0 0.00 0.00 0.00 52 1007.0
20220119012341 67 200 3.0 20.0 0.00 0.00 0.00 52 1006.9
20220119011840 67 132 9.0 15.0 0.00 0.00 0.00 52 1006.8
20220119011339 67 134 7.0 18.0 0.00 0.00 0.00 51 1006.9
20220119010838 67 203 5.0 15.0 0.00 0.00 0.00 51 1006.6
20220119010337 68 148 7.0 18.0 0.00 0.00 0.00 51 1006.9
20220119005836 68 139 5.0 17.0 0.00 0.00 0.00 51 1006.5
20220119005335 68 140 5.0 11.0 0.00 0.00 0.00 50 1006.7
20220119004833 68 145 3.0 17.0 0.00 0.00 0.00 50 1006.5
20220119004332 68 200 9.0 14.0 0.00 0.00 0.00 50 1006.5
20220119003831 68 175 5.0 16.0 0.00 0.00 0.00 50 1006.4
20220119003331 68 159 5.0 15.0 0.00 0.00 0.00 50 1006.3
20220119002830 68 153 8.0 14.0 0.00 0.00 0.00 49 1006.5
20220119002328 69 132 6.0 12.0 0.00 0.00 0.00 50 1006.2
20220119001829 69 138 6.0 17.0 0.00 0.00 0.00 49 1006.5
20220119001328 69 157 7.0 13.0 0.00 0.00 0.00 49 1006.3
20220119000827 69 141 5.0 14.0 0.00 0.00 0.00 49 1006.2
20220119000326 69 170 6.0 10.0 0.00 0.00 0.00 49 1006.2
20220118235825 70 133 6.0 16.0 0.00 0.00 0.00 48 1006.3
20220118235324 70 236 4.0 13.0 0.00 0.00 0.00 48 1006.2
20220118234823 70 129 4.0 11.0 0.00 0.00 0.00 47 1006.0
20220118234322 71 135 5.0 13.0 0.00 0.00 0.00 46 1006.2
20220118233820 71 146 6.0 14.0 0.00 0.00 0.00 46 1005.7
20220118233319 71 126 1.0 11.0 0.00 0.00 0.00 46 1005.8
20220118232818 71 106 3.0 7.0 0.00 0.00 0.00 46 1005.8
20220118232317 71 170 3.0 10.0 0.00 0.00 0.00 46 1005.9
20220118231817 72 195 5.0 10.0 0.00 0.00 0.00 45 1005.9
20220118231316 72 184 4.0 13.0 0.00 0.00 0.00 45 1005.9
20220118230815 72 152 3.0 17.0 0.00 0.00 0.00 45 1005.8
20220118230314 73 130 9.0 11.0 0.00 0.00 0.00 44 1005.8
20220118225813 73 125 6.0 12.0 0.00 0.00 0.00 43 1005.9
20220118225314 74 135 9.0 9.0 0.00 0.00 0.00 39 1005.8
20220118224813 74 194 5.0 16.0 0.00 0.00 0.00 39 1005.7
20220118224313 75 151 9.0 14.0 0.00 0.00 0.00 38 1005.8
20220118223812 75 225 9.0 9.0 0.00 0.00 0.00 38 1005.7
20220118223311 75 155 7.0 11.0 0.00 0.00 0.00 37 1005.8
20220118222810 75 152 12.0 21.0 0.00 0.00 0.00 38 1005.7
20220118222309 75 227 3.0 15.0 0.00 0.00 0.00 38 1005.8
20220118221808 75 165 7.0 10.0 0.00 0.00 0.00 38 1005.8
20220118221307 75 191 5.0 15.0 0.00 0.00 0.00 37 1005.7
20220118220805 75 128 5.0 13.0 0.00 0.00 0.00 37 1005.8
20220118220304 76 166 5.0 7.0 0.00 0.00 0.00 36 1005.8
20220118215803 76 195 6.0 10.0 0.00 0.00 0.00 36 1005.7
20220118215305 76 134 6.0 11.0 0.00 0.00 0.00 36 1005.8
20220118214802 76 214 10.0 12.0 0.00 0.00 0.00 35 1006.0
20220118214301 77 133 3.0 9.0 0.00 0.00 0.00 35 1006.0
20220118213800 77 199 2.0 12.0 0.00 0.00 0.00 33 1005.9
20220118213259 77 195 3.0 11.0 0.00 0.00 0.00 33 1005.9
20220118212757 77 194 7.0 10.0 0.00 0.00 0.00 34 1006.2
20220118212256 76 220 8.0 15.0 0.00 0.00 0.00 34 1006.2
20220118211755 77 243 3.0 8.0 0.00 0.00 0.00 34 1006.0
20220118211254 76 96 5.0 12.0 0.00 0.00 0.00 35 1005.9
20220118210754 76 141 6.0 13.0 0.00 0.00 0.00 35 1005.9
20220118210252 76 166 10.0 13.0 0.00 0.00 0.00 36 1006.3
20220118205752 75 153 5.0 16.0 0.00 0.00 0.00 37 1006.2
20220118205250 75 144 12.0 12.0 0.00 0.00 0.00 37 1006.5
20220118204749 75 138 11.0 18.0 0.00 0.00 0.00 37 1006.4
20220118204249 74 127 7.0 14.0 0.00 0.00 0.00 38 1006.4
20220118203747 75 143 7.0 9.0 0.00 0.00 0.00 37 1006.5
20220118203246 74 234 1.0 19.0 0.00 0.00 0.00 38 1006.5
20220118202745 74 127 18.0 18.0 0.00 0.00 0.00 38 1006.6
20220118202244 74 165 6.0 19.0 0.00 0.00 0.00 38 1006.8
20220118201745 74 154 6.0 9.0 0.00 0.00 0.00 37 1007.0
20220118201243 74 141 8.0 18.0 0.00 0.00 0.00 38 1006.9
20220118200742 73 185 5.0 15.0 0.00 0.00 0.00 39 1006.8
20220118200241 73 191 2.0 13.0 0.00 0.00 0.00 39 1006.9
20220118195739 73 205 7.0 9.0 0.00 0.00 0.00 40 1007.2
20220118195238 73 202 12.0 13.0 0.00 0.00 0.00 40 1007.3
20220118194737 72 145 4.0 12.0 0.00 0.00 0.00 40 1007.5
20220118194235 72 175 2.0 15.0 0.00 0.00 0.00 41 1007.5
20220118193736 71 143 9.0 14.0 0.00 0.00 0.00 41 1007.4
20220118193235 71 183 3.0 13.0 0.00 0.00 0.00 41 1007.5
20220118192734 70 179 4.0 13.0 0.00 0.00 0.00 43 1007.7
20220118192234 70 204 6.0 19.0 0.00 0.00 0.00 43 1008.0